Flag for U.S.A. Weather past 2 weeks in Richmond, Virginia, U.S.A.

Now
37 °F

Passing clouds.


Feels Like: 32 °F
Forecast: 37 / 59 °F
Wind: 6 mph from North

Location: Richmond International Airport


UV Index: 0 (Low)

Visibility: 9 mi


Pressure: 30.49 "Hg

Humidity: 82%

Dew point: 32 °F

Location of RichmondLocation

Historic Weather in Richmond

°F

Richmond temperature yesterday

Maximum temperature yesterday: 59 °F (at 1:54 PM)
Minimum temperature yesterday: 34 °F (at 5:54 AM)
Average temperature yesterday: 46 °F

Past Weeks' High & Low Weather Summary

 TemperatureHumidityPressure
High85 °F (Apr 4, 4:54 PM)93% (Apr 5, 3:54 AM)30.63 "Hg (Apr 5, 3:54 AM)
Low33 °F (Apr 16, 5:54 AM)20% (Apr 4, 4:54 PM)29.54 "Hg (Apr 8, 6:54 AM)
Average59 °F54%30.04 "Hg
* Reported Apr 3 3:54 AM — Apr 18 3:54 AM, Richmond, Weather by CustomWeather, © 2014

Note: Actual official high and low records may vary slightly from our data, if they occured in-between our weather recording intervals... More about our weather records

Advertising

Historic Weather Conditions — Data for Previous 24 hours

 ConditionsComfort  
Time TempWeatherWind HumidityBarometerVisibility
3:54 AM
Apr 18
37 °FPassing clouds.5 mph82%30.50 "Hg10 mi
2:54 AM38 °FPassing clouds.5 mph79%30.50 "Hg10 mi
1:54 AM39 °FClear.5 mph79%30.52 "Hg10 mi
12:54 AM40 °FClear.5 mph77%30.55 "Hg10 mi
11:54 PM
Apr 17
42 °FPassing clouds.6 mph73%30.55 "Hg10 mi
10:54 PM43 °FPassing clouds.3 mph71%30.59 "Hg10 mi
9:54 PM45 °FClear.7 mph65%30.56 "Hg10 mi
8:54 PM47 °FPassing clouds.10 mph61%30.55 "Hg10 mi
7:54 PM50 °FPassing clouds.8 mph52%30.53 "Hg10 mi
6:54 PM53 °FPartly sunny.10 mph45%30.54 "Hg10 mi
5:54 PM56 °FPartly sunny.12 mph42%30.53 "Hg10 mi
4:54 PM59 °FHigh level clouds.10 mph38%30.53 "Hg10 mi
3:54 PM59 °FHigh level clouds.8 mph36%30.54 "Hg10 mi
2:54 PM59 °FHigh level clouds.13 mph36%30.56 "Hg10 mi
1:54 PM59 °FHigh level clouds.8 mph38%30.58 "Hg10 mi
12:54 PM56 °FOvercast.7 mph40%30.59 "Hg10 mi
11:54 AM53 °FPartly sunny.7 mph43%30.62 "Hg10 mi
10:54 AM51 °FPartly sunny.10 mph44%30.63 "Hg10 mi
9:54 AM49 °FPartly sunny.12 mph50%30.62 "Hg10 mi
8:54 AM45 °FScattered clouds.8 mph56%30.62 "Hg10 mi
7:54 AM41 °FPassing clouds.7 mph67%30.62 "Hg10 mi
6:54 AM34 °FPassing clouds.3 mph79%30.59 "Hg10 mi
5:54 AM34 °FClear.5 mph79%30.57 "Hg10 mi
Weather by CustomWeather, © 2014

See weather overview